Regional Weather Roundup
Issued by NWS

Home | Current Version | Previous Version | Graphics & Text | Print | Product List | Glossary On
Versions: 1 2 3 4 5 6 7 8 9 10 11 12 13 14 15 16 17 18 19 20 21 22 23 24 25 26 27 28 29 30 31 32 33 34 35 36 37 38 39 40 41 42 43 44 45 46 47 48 49 50
000
ASUS43 KLOT 121603
RWRIL

ILLINOIS REGIONAL WEATHER ROUNDUP
NATIONAL WEATHER SERVICE CHICAGO/ROMEOVILLE IL
1000 AM CST FRI FEB 12 2016

NOTE: "FAIR" INDICATES FEW OR NO CLOUDS BELOW 12,000 FEET WITH NO
SIGNIFICANT WEATHER AND/OR OBSTRUCTIONS TO VISIBILITY.

* THESE STATIONS ARE NOT UNDER NWS QUALITY CONTROL. THEY ALSO MAY NOT
  REPORT WEATHER SUCH AS PRECIPITATION OR FOG.

ILZ001-002-007-009-015-016-024-121700-
NORTHWEST ILLINOIS

CITY           SKY/WX    TMP DP  RH WIND       PRES   REMARKS
MOLINE         MOSUNNY   23  12  62 NW14G23   30.26S WCI  11
STERLING*      PTSUNNY   21  12  68 NW17      30.20S WCI   7
SAVANNA*       PTSUNNY   20   9  62 NW13      30.24S WCI   8
$$

ILZ003-004-008-010-011-017-018-121700-
NORTH CENTRAL ILLINOIS

CITY           SKY/WX    TMP DP  RH WIND       PRES   REMARKS
ROCKFORD       PTSUNNY   20   9  62 NW17      30.21R WCI   5
FREEPORT*      PTSUNNY   18   9  69 NW16G22   30.22S WCI   3
ROCHELLE*      PTSUNNY   19  11  70 NW13      30.20S WCI   7
DE KALB*       CLOUDY    18  11  74 NW20      30.17R WCI   2
$$

ILZ005-006-012>014-019>023-121700-
NORTHEAST ILLINOIS

CITY           SKY/WX    TMP DP  RH WIND       PRES   REMARKS
CHICAGO-OHARE  FLURRIES  20  11  68 W17G24    30.14S WCI   5
CHICAGO-MIDWAY FLURRIES  21  11  65 NW15      30.15S WCI   8
AURORA         CLOUDY    20  13  74 NW20G25   30.17F WCI   4
LANSING*       LGT SNOW  22  15  75 W12G24    30.15S WCI  10
WAUKEGAN       MOSUNNY   20   7  57 NW16      30.13S WCI   6
DUPAGE AIRPORT FLURRIES  19  10  68 W17       30.16R WCI   4
WHEELING       PTSUNNY   20  10  65 NW17      30.15S WCI   5
NORTHERLY ISL    N/A     20  11  68 NW18        N/A  WCI   5
$$

LMZ740>746-121700-
SOUTHERN LAKE MICHIGAN

STATION/POSITION SKY/WX   TEMP    WIND        PRES    VSBY  WAVE
                          AIR SEA DIR/SP/G                  HT/PER
                          (F)     (DEG/KT/KT) (MB)    (MI)  (FT/S)
HARRISON CRIB              22     280/ 20/ 24   N/A
BURNHAM HARBOR             21     310/  9/ 16   N/A
CALUMET HARBOR             21     270/  7/ 12 1019.9S
BURNS HARBOR               22     280/ 18/ 22 1020.3F
MICHIGAN CITY              22     250/ 20/ 24   N/A
$$

ILZ025>027-034>036-040-047-049-050-058-095>099-121700-
WEST-CENTRAL ILLINOIS

CITY           SKY/WX    TMP DP  RH WIND       PRES   REMARKS
QUINCY         CLOUDY    23  18  81 NW17      30.29R WCI   9
MACOMB*        CLOUDY    24  21  89 NW15      30.29R WCI  11
$$

ILZ028>032-037-038-041>044-048-051>054-059>061-121700-
CENTRAL ILLINOIS

CITY           SKY/WX    TMP DP  RH WIND       PRES   REMARKS
BLOOMINGTON    FLURRIES  24  20  85 NW15      30.21R WCI  11
DECATUR        CLOUDY    25  18  74 NW12      30.23R WCI  14
PEORIA         FLURRIES  23  17  78 NW14      30.25R WCI  11
LINCOLN*       CLOUDY    25  21  83 W7        30.24R WCI  17
SPRINGFIELD    CLOUDY    26  19  74 W14       30.26R WCI  14
TAYLORVILLE    NOT AVBL
$$

ILZ033-039-045-046-055>057-062-063-121700-
EAST-CENTRAL ILLINOIS

CITY           SKY/WX    TMP DP  RH WIND       PRES   REMARKS
CHAMPAIGN      CLOUDY    24  20  84 W14       30.21R WCI  12
MATTOON        CLOUDY    24  19  81 W13       30.20S WCI  12
$$

ILZ079-100>102-121700-
SOUTHWEST ILLINOIS

CITY           SKY/WX    TMP DP  RH WIND       PRES   REMARKS
BELLEVILLE     MOSUNNY   29  25  86 W10       30.27R WCI  19
CAHOKIA*       CLOUDY    30  23  75 NW10      30.29R WCI  21
SPARTA*        CLOUDY    28  24  85 NW7       30.28R WCI  20
$$

ILZ064>066-069>071-074>076-080>082-084>086-088>090-092>094-121700-
SOUTH-CENTRAL ILLINOIS

CITY           SKY/WX    TMP DP  RH WIND       PRES   REMARKS
CARBONDALE     CLOUDY    28  23  81 NW6       30.27R WCI  22
MARION         CLOUDY    28  25  86 N5        30.27R WCI  23
MT. VERNON     CLOUDY    27  19  74 W5        30.26R WCI  21
CENTRALIA*     CLOUDY    28  24  86 W6        30.26R WCI  21
SALEM*         CLOUDY    27  22  83 W7        30.26R WCI  19
$$

ILZ067-068-072-073-078-083-087-091-121700-
SOUTHEAST ILLINOIS

CITY           SKY/WX    TMP DP  RH WIND       PRES   REMARKS
LAWRENCEVILLE  CLOUDY    26  20  77 W9        30.24S WCI  17
HARRISBURG*    CLOUDY    27  23  85 CALM      30.27R
ROBINSON*      CLOUDY    25  20  80 NW8       30.24S WCI  17
$$

ABBREVIATIONS USED IN REMARKS
   TC - TEMPERATURE IN CELSIUS
  WCI - WIND CHILL INDEX
   HX - HEAT INDEX
  VSB - VISIBILITY
$$




USA.gov is the U.S. government's official web portal to all federal, state and local government web resources and services.